ACA12 CYVR-CYYC

Flight info

Callsign ACA12
Flight time N/A
Altitude 35000
Route DCT DAPED DCT PETLI DCT MENBO Q983 NORET IGVEP7
Aircraft A321/M-SDE3FGHIRWY/LB1

Departure

Time 2026-05-05 02:12
Airport Vancouver International Airport (CYVR)

Arrival

Time N/A
Airport Calgary International Airport (CYYC)
Time Latitude Longitude Altitude Speed Heading
2026-05-05 01:35 49.19196 -123.18282 10 ft 0 kts 10°
2026-05-05 02:02 49.19193 -123.18283 10 ft 3 kts 10°
2026-05-05 02:02 49.19167 -123.18289 11 ft 4 kts
2026-05-05 02:03 49.19145 -123.18294 11 ft 4 kts 18°
2026-05-05 02:03 49.19124 -123.18314 13 ft 4 kts 64°
2026-05-05 02:03 49.19118 -123.18342 10 ft 0 kts 79°
2026-05-05 02:07 49.19120 -123.18331 10 ft 5 kts 80°
2026-05-05 02:07 49.19119 -123.18245 11 ft 13 kts 98°
2026-05-05 02:07 49.19097 -123.18081 10 ft 15 kts 116°
2026-05-05 02:07 49.19002 -123.18053 10 ft 16 kts 191°
2026-05-05 02:08 49.18909 -123.18030 10 ft 12 kts 112°
2026-05-05 02:08 49.18892 -123.17888 12 ft 19 kts 100°
2026-05-05 02:08 49.18864 -123.17644 10 ft 25 kts 99°
2026-05-05 02:08 49.18833 -123.17370 10 ft 28 kts 100°
2026-05-05 02:09 49.18800 -123.17085 10 ft 24 kts 100°
2026-05-05 02:09 49.18771 -123.16826 10 ft 28 kts 100°
2026-05-05 02:09 49.18732 -123.16489 11 ft 30 kts 100°
2026-05-05 02:09 49.18675 -123.16255 11 ft 21 kts 133°
2026-05-05 02:10 49.18630 -123.16107 10 ft 14 kts 101°
2026-05-05 02:10 49.18562 -123.16038 11 ft 12 kts 185°
2026-05-05 02:10 49.18484 -123.16085 12 ft 14 kts 240°
2026-05-05 02:10 49.18483 -123.16141 11 ft 0 kts 277°
2026-05-05 02:11 49.18483 -123.16148 11 ft 0 kts 277°
2026-05-05 02:11 49.18485 -123.16167 16 ft 9 kts 277°
2026-05-05 02:11 49.18524 -123.16508 9 ft 65 kts 279°
2026-05-05 02:11 49.18637 -123.17504 12 ft 122 kts 280°
2026-05-05 02:12 49.18809 -123.19011 11 ft 164 kts 279°
2026-05-05 02:12 49.19222 -123.22622 935 ft 173 kts 278°
2026-05-05 02:12 49.19442 -123.24425 1502 ft 172 kts 278°
2026-05-05 02:13 49.19519 -123.26298 1816 ft 186 kts 266°
2026-05-05 02:13 49.19377 -123.28368 1957 ft 205 kts 263°
2026-05-05 02:13 49.19186 -123.30613 2070 ft 227 kts 262°
2026-05-05 02:13 49.18965 -123.33179 2300 ft 251 kts 262°
2026-05-05 02:14 49.18729 -123.35838 2934 ft 259 kts 263°
2026-05-05 02:14 49.18438 -123.38566 3727 ft 262 kts 256°
2026-05-05 02:14 49.17610 -123.41062 4501 ft 269 kts 231°
2026-05-05 02:14 49.16109 -123.42795 5233 ft 277 kts 204°
2026-05-05 02:15 49.14205 -123.43297 5944 ft 284 kts 175°
2026-05-05 02:15 49.12334 -123.42362 6639 ft 287 kts 146°
2026-05-05 02:15 49.10958 -123.40188 7322 ft 288 kts 117°
2026-05-05 02:15 49.10398 -123.37289 8023 ft 287 kts 90°
2026-05-05 02:16 49.10468 -123.34249 8761 ft 287 kts 85°
2026-05-05 02:16 49.10576 -123.31248 9506 ft 288 kts 85°
2026-05-05 02:16 49.10686 -123.28194 10190 ft 290 kts 84°
2026-05-05 02:16 49.10800 -123.24996 10357 ft 312 kts 85°
2026-05-05 02:17 49.10917 -123.21573 10484 ft 334 kts 85°
2026-05-05 02:17 49.11036 -123.17960 10856 ft 345 kts 85°
2026-05-05 02:17 49.11150 -123.14279 11423 ft 350 kts 85°
2026-05-05 02:17 49.11262 -123.10545 12034 ft 354 kts 84°
2026-05-05 02:18 49.11367 -123.06967 12610 ft 357 kts 84°
2026-05-05 02:18 49.11479 -123.03194 13211 ft 361 kts 84°
2026-05-05 02:18 49.11594 -122.99361 13797 ft 365 kts 84°
2026-05-05 02:18 49.11714 -122.95477 14345 ft 368 kts 84°
2026-05-05 02:19 49.11825 -122.91809 14861 ft 371 kts 84°
2026-05-05 02:19 49.11949 -122.87864 15396 ft 374 kts 84°
2026-05-05 02:19 49.12069 -122.83872 15944 ft 378 kts 84°
2026-05-05 02:19 49.12144 -122.81218 16305 ft 380 kts 84°